[[{"header":{"parameterUnit":"m.s-1","parameterCategory":1,"la1":30.2991,"la2":30.254,"lo1":-89.0895,"lo2":-89.0444,"dy":0.0017,"dx":0.0017,"nx":28,"ny":28,"refTime":"2024-07-13T21:00:00:Z","depth":0,"parameterNumber":2,"parameterNumberName":"U-component_of_WINDS"},"data":[0,0,0,0,0,0,0,0,0,0,0,0,0,0,0,0,0,0,0,0,0,0,0,0,0,0,0,0,0,0,0,0,0,0,0,0,0,0,0,0,0,0,0,0,0,0,0,0,0,0,0,0,0,0,0,0,0,0,1.8608,1.8609,0,1.8655,1.8656,1.8656,1.8604,1.8602,1.86,1.8598,1.8654,1.8658,1.8661,0,0,0,0,0,0,0,0,0,0,0,0,0,1.848,1.8483,1.8608,1.8609,1.8609,1.8655,1.8656,1.8656,1.8604,1.8602,1.86,1.8597,1.8653,1.8657,1.8661,0,0,0,0,0,0,0,0,0,0,0,0,0,1.8533,1.8484,1.8608,1.8589,1.8587,1.8655,1.8656,1.8657,1.8605,1.8602,1.8599,1.8596,1.8652,1.8657,1.8662,1.8753,0,0,1.8677,1.8679,0,0,0,0,0,0,0,0,1.853,1.8538,1.8591,1.859,1.8589,1.862,1.8631,1.8689,1.8606,1.8599,1.8598,1.8595,1.8646,1.8651,1.8667,1.8756,1.8758,1.8678,1.8681,1.8683,1.8684,0,0,0,0,0,0,0,1.8526,1.8535,1.8627,1.8592,1.859,1.858,1.8584,1.8642,1.8639,1.8599,1.8595,1.8601,1.8645,1.8662,1.8668,1.8759,1.8678,1.8682,1.8685,1.8687,1.8927,1.893,0,0,0,0,0,0,1.8524,1.8533,1.8625,1.8628,1.8551,1.8585,1.8589,1.8614,1.8638,1.8639,1.8604,1.8598,1.8655,1.8662,1.867,1.8779,1.8683,1.8688,1.8691,1.8923,1.8927,1.8931,0,0,0,0,0,0,1.8521,1.8533,1.8624,1.8579,1.859,1.859,1.8618,1.8616,1.8633,1.8641,1.8641,1.8621,1.8653,1.8663,1.8733,1.8781,1.869,1.8695,1.8919,1.8925,1.8929,1.8999,0,0,0,0,0,0,1.8518,1.8532,1.8565,1.858,1.8593,1.8684,1.8621,1.8619,1.8641,1.8635,1.8658,1.8659,1.8652,1.8725,1.8738,1.8786,1.8698,1.8915,1.8922,1.8928,1.8992,1.9006,1.9017,0,0,0,0,0,1.8513,1.8584,1.8567,1.8579,1.8634,1.8686,1.8694,1.8681,1.8645,1.868,1.8685,1.8659,1.8773,1.8733,1.8746,1.8797,1.8912,1.892,1.8927,1.8987,1.9003,1.9017,0,0,0,0,0,0,1.8578,1.8586,1.8567,1.8644,1.8665,1.8677,1.8721,1.8698,1.8731,1.8725,1.871,1.8715,1.879,1.88,1.8755,1.8887,1.8837,1.8848,1.8878,1.8893,1.8905,1.8902,1.8703,0,0,0,0,0,1.86,1.864,1.8646,1.8714,1.8725,1.8721,1.8744,1.8732,1.8753,1.8763,1.8773,1.8797,1.8838,1.8866,1.8905,1.8993,1.8998,1.9034,1.9047,1.9057,1.9067,1.9116,1.9132,1.8956,1.8955,1.8955,0,0,1.8649,1.8658,1.8685,1.8727,1.8741,1.8785,1.8729,1.8778,1.8811,1.8771,1.8837,1.8845,1.8871,1.8951,1.8987,1.8962,1.9116,1.9066,1.9074,1.9079,1.9125,1.9142,1.9157,1.8961,1.896,1.8959,0,0,1.8759,1.8769,1.8827,1.8842,1.8864,1.886,1.8874,1.889,1.8894,1.8959,1.893,1.897,1.9042,1.9061,1.9081,1.9198,1.9176,1.9211,1.9277,1.9325,1.9338,1.9351,1.9394,1.941,1.9221,1.9221,1.9221,0,1.8817,1.888,1.8861,1.8911,1.8932,1.8894,1.8955,1.8971,1.9005,1.9021,1.8992,1.908,1.9095,1.918,1.9208,1.9225,1.9242,1.921,1.9337,1.935,1.9361,1.9402,1.9418,1.9225,1.9225,1.9224,1.9224,0,1.8951,1.8995,1.904,1.9071,1.9096,1.9151,1.9143,1.9171,1.9157,1.9158,1.9226,1.9242,1.9283,1.9302,1.929,1.9385,1.9369,1.9339,1.9289,1.9382,1.9421,1.9437,1.9231,1.923,1.9229,1.9228,0,0,1.9105,1.9123,1.9141,1.9154,1.9175,1.921,1.9264,1.9302,1.9327,1.9352,1.9399,1.9459,1.9431,1.9453,1.9443,1.9484,1.9578,1.9449,1.945,1.9474,1.9686,1.971,1.9728,1.9562,1.9565,1.9567,1.9684,0,1.9217,1.9308,1.9293,1.9382,1.9424,1.9388,1.9436,1.9455,1.9457,1.9494,1.9497,1.9541,1.9499,1.9513,1.9552,1.9558,1.9621,1.9549,1.9608,1.961,1.9604,1.9748,1.9773,1.9883,1.9699,1.9702,1.9703,0,1.9361,1.9388,1.9481,1.9495,1.9512,1.9554,1.9588,1.9623,1.9644,1.9643,1.9667,1.9649,1.9705,1.9652,1.9731,1.9683,1.9706,1.9712,1.9716,1.9723,1.9664,1.9761,1.9917,1.9935,1.9727,1.9725,1.9723,0,1.9466,1.9526,1.9589,1.9602,1.962,1.9651,1.966,1.9678,1.9702,1.9732,1.9747,1.9784,1.9805,1.9836,1.9829,1.979,1.991,1.9856,1.9913,1.9913,1.9941,1.994,2.0106,1.9953,1.9953,1.9952,1.9952,0,1.9594,1.9653,1.9637,1.9676,1.9742,1.9724,1.979,1.9795,1.9811,1.9853,1.9825,1.9865,1.9852,1.9892,1.9887,1.9954,1.9964,1.9966,1.9964,1.997,1.997,1.9986,1.9979,1.9957,1.9956,1.9955,1.9954,0,1.9724,1.9715,1.9782,1.9792,1.9796,1.9844,1.9854,1.9892,1.989,1.9944,1.9955,1.9954,2.0,1.9995,2.0047,2.0044,2.0127,2.0116,2.0119,2.0118,2.0175,2.017,2.0359,2.0383,2.0213,2.0215,2.0216,0,1.9807,1.9851,1.9865,1.9889,1.99,1.994,1.9963,1.9947,1.9973,2.0001,2.0036,2.0078,2.0112,2.0187,2.0193,2.0232,2.0223,2.0286,2.0229,2.0233,2.0226,2.0224,2.0229,2.0298,2.03,2.0302,2.0303,0,1.9956,1.9949,1.9982,2.0015,2.0043,2.0068,2.0091,2.0113,2.0099,2.013,2.0175,2.0201,2.0252,2.0296,2.0333,2.0345,2.0323,2.032,2.0336,2.0343,2.0343,2.0345,2.0152,2.0317,2.0315,2.0314,2.0314,2.0313,2.0066,2.0104,2.0119,2.0158,2.0172,2.0194,2.023,2.0232,2.0268,2.0308,2.0296,2.0348,2.0369,2.0416,2.0432,2.0473,2.045,2.0473,2.0479,2.0485,2.0492,2.0335,2.048,2.0479,2.0479,2.0479,2.0478,0,2.0216,2.0223,2.0258,2.029,2.032,2.0293,2.0316,2.0345,2.0389,2.0409,2.0441,2.0494,2.0535,2.0543,2.0584,2.0615,2.0606,2.0627,2.0625,2.0629,2.0509,2.0492,2.0633,2.0633,2.0633,2.0633,2.0633,2.0633,2.0297,2.036,2.0354,2.0425,2.0432,2.048,2.0496,2.0517,2.0532,2.0591,2.0624,2.0628,2.0644,2.0685,2.0722,2.0724,2.0741,2.0766,2.0764,2.0652,2.0637,2.0622,2.0606,2.0769,2.0769,2.0879,2.088,2.0881]},{"header":{"parameterUnit":"m.s-1","parameterCategory":1,"la1":30.2991,"la2":30.254,"lo1":-89.0895,"lo2":-89.0444,"dy":0.0017,"dx":0.0017,"nx":28,"ny":28,"refTime":"2024-07-13T21:00:00:Z","depth":0,"parameterNumber":3,"parameterNumberName":"V-component_of_WINDS"},"data":[0,0,0,0,0,0,0,0,0,0,0,0,0,0,0,0,0,0,0,0,0,0,0,0,0,0,0,0,0,0,0,0,0,0,0,0,0,0,0,0,0,0,0,0,0,0,0,0,0,0,0,0,0,0,0,0,0,0,2.6552,2.6554,0,2.6651,2.6652,2.6653,2.6711,2.6711,2.6712,2.6712,2.6807,2.6809,2.6812,0,0,0,0,0,0,0,0,0,0,0,0,0,2.6405,2.6408,2.6552,2.6554,2.6555,2.6651,2.6652,2.6654,2.6711,2.6712,2.6712,2.6712,2.6806,2.6809,2.6812,0,0,0,0,0,0,0,0,0,0,0,0,0,2.6483,2.6409,2.6552,2.6595,2.66,2.6651,2.6652,2.6654,2.6711,2.6712,2.6712,2.6712,2.6805,2.6809,2.6812,2.6826,0,0,2.6823,2.6824,0,0,0,0,0,0,0,0,2.6478,2.6488,2.6588,2.6592,2.6598,2.6669,2.6635,2.6711,2.6711,2.6669,2.6712,2.6712,2.6761,2.6768,2.6785,2.683,2.6834,2.6823,2.6825,2.6827,2.6828,0,0,0,0,0,0,0,2.6473,2.6484,2.6591,2.6589,2.6595,2.6607,2.6618,2.665,2.6711,2.6673,2.6677,2.6688,2.6763,2.6782,2.6788,2.6835,2.6823,2.6826,2.6828,2.6829,2.6892,2.6891,0,0,0,0,0,0,2.6462,2.6479,2.6588,2.6594,2.6538,2.6609,2.6622,2.6646,2.6711,2.6721,2.6688,2.6691,2.6776,2.6784,2.6791,2.6809,2.6827,2.683,2.6832,2.6892,2.6892,2.6891,0,0,0,0,0,0,2.6458,2.6471,2.6584,2.6538,2.6553,2.6611,2.6638,2.6648,2.6666,2.6723,2.6733,2.6696,2.6776,2.6787,2.6816,2.6813,2.6831,2.6834,2.6893,2.6892,2.6891,2.6846,0,0,0,0,0,0,2.6454,2.6469,2.6478,2.6538,2.6556,2.661,2.6638,2.6649,2.6673,2.6677,2.6733,2.6742,2.6777,2.6811,2.6819,2.6818,2.6837,2.6893,2.6892,2.6892,2.6848,2.6844,2.684,0,0,0,0,0,2.6449,2.646,2.6478,2.649,2.6567,2.661,2.662,2.6661,2.6672,2.6679,2.6714,2.6741,2.6812,2.6813,2.6824,2.6823,2.6893,2.6893,2.6892,2.685,2.6845,2.684,0,0,0,0,0,0,2.6397,2.6469,2.6489,2.6522,2.6559,2.6619,2.663,2.6655,2.6689,2.6692,2.674,2.6752,2.6776,2.6803,2.6803,2.6838,2.6855,2.6856,2.682,2.6815,2.6812,2.6805,2.684,0,0,0,0,0,2.639,2.6421,2.6481,2.6503,2.6521,2.6572,2.6592,2.662,2.6661,2.6676,2.6714,2.675,2.678,2.6799,2.6831,2.6852,2.6863,2.6856,2.6852,2.6849,2.6849,2.6859,2.6856,2.6888,2.6888,2.6888,0,0,2.6375,2.6418,2.6435,2.6494,2.6527,2.6554,2.6585,2.6614,2.6634,2.668,2.6711,2.6739,2.6782,2.6806,2.6819,2.6829,2.6842,2.6848,2.6845,2.6847,2.6857,2.6854,2.6852,2.6888,2.6888,2.6888,0,0,2.6362,2.6399,2.642,2.6451,2.65,2.6533,2.6538,2.6593,2.6614,2.6646,2.668,2.6702,2.6755,2.6783,2.6804,2.6796,2.682,2.6804,2.6785,2.6794,2.6791,2.6789,2.6784,2.6782,2.6805,2.6804,2.6804,0,2.6337,2.6383,2.6427,2.6454,2.6477,2.652,2.654,2.6568,2.6623,2.6637,2.6648,2.6712,2.6744,2.6774,2.6772,2.6788,2.6792,2.6799,2.6788,2.6786,2.6785,2.6781,2.6779,2.6802,2.6802,2.6803,2.6803,0,2.6348,2.6378,2.6389,2.6442,2.6467,2.649,2.6535,2.6554,2.6578,2.6609,2.6637,2.6677,2.6715,2.6724,2.6749,2.6757,2.6761,2.6779,2.6798,2.6779,2.6776,2.6775,2.6799,2.68,2.68,2.6801,0,0,2.6309,2.6384,2.6387,2.641,2.6464,2.6487,2.6509,2.6548,2.6562,2.6597,2.6616,2.6657,2.6673,2.6696,2.6724,2.6732,2.6719,2.6748,2.675,2.674,2.6727,2.6712,2.671,2.6735,2.6735,2.6735,2.6722,0,2.6303,2.6349,2.6387,2.6417,2.6443,2.6482,2.6501,2.6534,2.6562,2.6586,2.6616,2.6644,2.6664,2.6678,2.6687,2.6719,2.6717,2.672,2.675,2.6751,2.6738,2.6709,2.6695,2.6681,2.6722,2.6722,2.6721,0,2.6304,2.6337,2.637,2.6418,2.643,2.6447,2.6483,2.6507,2.6544,2.6563,2.6587,2.6616,2.6637,2.6653,2.6682,2.6683,2.6697,2.6714,2.6714,2.6718,2.6735,2.6711,2.6678,2.6675,2.672,2.672,2.672,0,2.627,2.6323,2.6349,2.6367,2.6424,2.6434,2.6458,2.6496,2.6515,2.6545,2.6558,2.659,2.6607,2.6629,2.6664,2.6673,2.6688,2.6707,2.6703,2.6702,2.6705,2.6704,2.6673,2.6714,2.6715,2.6715,2.6715,0,2.6259,2.6277,2.6334,2.6349,2.6369,2.641,2.6428,2.6455,2.6487,2.6506,2.654,2.6557,2.6602,2.6623,2.665,2.6668,2.6676,2.669,2.6696,2.6686,2.6684,2.6696,2.6698,2.6714,2.6714,2.6714,2.6714,0,2.6226,2.6265,2.6295,2.6345,2.6358,2.637,2.6412,2.6426,2.6455,2.6478,2.6485,2.6529,2.6555,2.6592,2.6629,2.6647,2.666,2.6672,2.6648,2.6652,2.6645,2.6644,2.6619,2.6617,2.6661,2.666,2.666,0,2.6217,2.6232,2.6283,2.6298,2.6321,2.6346,2.6365,2.6405,2.6423,2.6463,2.6472,2.6501,2.6526,2.6565,2.6598,2.6626,2.6637,2.6626,2.6642,2.663,2.6635,2.6634,2.6634,2.6623,2.6622,2.6622,2.6621,0,2.6196,2.6213,2.6241,2.6273,2.6295,2.6323,2.6351,2.6361,2.6406,2.6424,2.6451,2.6471,2.6507,2.6534,2.6565,2.6587,2.661,2.6616,2.6616,2.6606,2.6591,2.6597,2.6637,2.6617,2.6617,2.6617,2.6618,2.6618,2.6174,2.6187,2.6224,2.6252,2.6277,2.6302,2.6317,2.6346,2.637,2.6404,2.6425,2.645,2.6482,2.6526,2.6546,2.6564,2.6574,2.6575,2.6575,2.6574,2.657,2.6588,2.657,2.657,2.6571,2.6571,2.6571,0,2.6154,2.6178,2.6203,2.6242,2.6262,2.6283,2.6314,2.6329,2.6351,2.638,2.6403,2.6432,2.6457,2.6491,2.6517,2.6525,2.6536,2.653,2.653,2.6534,2.656,2.6557,2.6521,2.6521,2.6521,2.6521,2.6521,2.6521,2.6146,2.6168,2.6188,2.6221,2.6246,2.6271,2.6287,2.6308,2.6331,2.6362,2.6383,2.6405,2.6434,2.6462,2.6485,2.6494,2.6501,2.6492,2.6504,2.6528,2.6533,2.6537,2.6534,2.6493,2.6493,2.6476,2.6476,2.6476]}]]